Location: Beccas
(43.4309°N, 0.1528°E)
Time: 09:48:01
(UTC+00:00)

YAOGAN 1 - Pass Details

Date: 15 October 2021
Orbit: 618 x 620 km, 97.9° (Epoch: 07 December)

Event Time Altitude Azimuth Distance (km) Brightness Sun altitude
Rises 19:21:33 0° 187° (S) 2,881 6.0 -23.5°
Reaches altitude 10° 19:23:53 10° 196° (SSW) 1,980 5.2 -23.9°
Maximum altitude 19:27:50 35° 263° (W) 998 4.1 -24.6°
Drops below altitude 10° 19:31:51 10° 330° (NNW) 1,996 5.7 -25.3°
Sets 19:34:12 0° 339° (NNW) 2,907 6.5 -25.7°
